Temperature
22 21 21 20 19 19 18 18 18 18 18 17 17 17 17 17 17 17 16 16 16 16 16 16 16 15 15 15 15 15 15 15 14 14 14 14 14 14 14 14 13 13 13
22 21 20 19 19 18 18 18 18 18 17 17 17 17 17 17 16 16 16 16 16 16 15 15 15 15 15 15 15 15 15 14 14 14 14 13 13 13 13 13 13 13 13
21 20 19 19 18 18 18 17 17 17 17 17 17 17 17 16 16 16 16 16 15 15 15 15 15 15 15 15 14 14 14 14 14 14 13 12 12 13 13 13 13 13 13
20 19 18 18 18 17 17 17 17 17 17 17 17 17 16 16 16 16 15 15 15 15 15 15 15 14 14 14 14 14 14 14 13 13 12 12 12 12 12 12 12 12 12
19 18 18 17 17 17 17 17 17 17 17 17 16 16 16 16 16 15 15 15 15 15 15 14 14 14 14 14 14 14 13 13 13 12 12 11 11 12 12 11 12 12 12
19 18 17 17 17 16 16 17 17 17 17 16 16 16 16 16 15 15 15 15 15 15 14 14 14 13 13 13 13 13 13 13 12 11 11 11 11 11 11 11 11 11 11
18 17 17 17 16 16 16 16 16 16 16 16 16 16 16 15 15 15 15 15 14 14 14 14 13 13 13 13 13 13 12 12 11 11 11 11 11 11 11 11 11 11 11
17 17 16 16 16 16 16 16 16 16 16 16 16 16 15 15 15 15 15 14 14 14 13 13 13 13 12 12 12 12 12 12 11 11 11 11 11 11 11 11 11 11 11
16 16 16 16 16 16 16 16 16 16 16 16 15 15 15 15 15 14 14 14 14 13 13 13 12 12 12 12 12 12 12 11 11 11 10 10 10 10 10 10 10 10 10
15 15 16 16 16 16 16 16 16 16 15 15 15 15 15 14 14 14 14 13 13 13 12 12 12 12 12 12 12 12 11 11 10 10 10 10 10 10 10 10 10 10 10
15 15 15 15 16 16 15 15 15 15 15 15 15 14 14 14 13 13 13 13 12 12 12 12 12 12 12 12 11 11 11 10 10 10 10 10 10 10 10 10 10 10 10
15 15 15 15 15 15 15 15 15 15 15 14 14 14 14 13 13 12 12 12 12 12 12 11 11 11 11 11 11 11 10 10 10 10 10 10 10 9 9 9 10 9 10
15 15 15 15 15 15 15 15 15 15 14 14 14 14 13 13 13 12 12 11 11 11 11 11 11 11 10 11 11 10 10 10 10 9 9 10 9 9 9 9 9 9 9
15 15 15 15 15 15 15 15 15 15 14 14 14 13 13 13 12 12 12 11 11 11 11 11 11 11 10 10 10 10 10 10 10 9 9 9 9 9 9 9 9 9 9
14 14 15 15 15 15 15 15 15 14 14 14 14 13 13 13 13 12 12 11 11 11 11 11 11 10 10 10 10 10 10 9 9 9 9 9 9 9 9 9 9 9 9
14 14 14 14 15 15 15 15 14 14 14 14 14 13 13 13 13 12 12 11 11 11 11 11 10 10 10 10 10 9 9 9 9 9 9 9 9 9 9 9 9 8 8
14 14 14 14 14 15 15 15 14 14 14 14 14 13 13 13 13 12 12 11 11 11 11 10 10 10 10 10 9 9 9 9 9 9 9 9 9 9 9 9 8 8 8
13 13 14 14 14 14 14 14 14 14 14 14 14 13 13 13 12 12 12 12 11 11 11 10 10 10 10 9 9 9 9 9 9 9 9 9 9 9 9 9 9 9 8
13 13 13 14 14 14 14 14 14 14 14 14 13 13 13 12 12 12 12 11 11 11 11 10 10 10 9 9 9 9 9 9 9 9 9 9 9 9 9 9 9 9 9
13 13 13 13 13 14 14 14 14 14 14 13 13 13 13 12 12 12 12 11 11 11 11 10 10 10 9 9 9 9 9 9 9 9 9 9 9 9 9 9 9 9 9
12 13 13 13 13 13 13 13 13 13 13 13 13 13 13 12 12 12 12 11 11 11 11 10 10 9 9 9 8 8 8 9 9 9 9 9 9 9 9 9 9 9 9
12 12 13 13 13 13 13 13 13 13 13 13 13 13 12 12 12 12 12 11 11 11 10 10 10 9 9 9 8 8 9 9 9 9 9 9 9 9 9 9 9 9 9
11 12 12 13 13 13 13 13 13 13 13 13 13 13 12 12 12 12 12 11 11 11 11 10 10 10 9 9 9 9 9 10 9 9 10 10 9 9 9 9 9 9 9
11 12 12 12 13 13 13 13 13 13 12 12 13 12 12 12 12 12 12 12 11 11 11 11 10 10 9 9 9 9 9 9 9 9 9 10 9 9 9 9 9 9 9
11 11 12 12 12 12 12 12 12 12 12 12 12 12 12 12 12 12 12 11 11 11 11 11 10 10 10 9 9 9 9 9 9 9 9 9 9 9 9 9 9 9 9
10 11 11 11 12 12 12 12 12 12 12 12 12 12 12 12 12 12 12 12 11 11 11 11 11 10 10 9 9 9 9 9 9 9 9 9 9 9 9 9 9 9 9
Wind_Speed
11 19 25 25 25 24 24 23 24 24 23 23 22 22 21 21 20 20 19 19 19 19 18 18 18 18 18 18 17 17 17 17 16 16 15 15 14 14 14 12 11 14 15
14 21 25 25 26 25 25 24 24 24 23 23 23 22 22 21 21 21 20 19 19 19 18 18 18 18 18 18 17 17 16 16 15 15 14 14 14 14 14 14 14 14 15
15 21 26 25 25 25 25 24 24 24 24 23 23 22 22 21 21 21 20 19 19 18 18 18 18 18 18 17 17 16 16 15 14 12 10 11 12 13 14 15 15 15 15
15 20 25 26 25 25 25 24 24 24 24 24 23 23 22 22 21 20 20 19 19 19 19 19 19 18 17 17 16 16 15 15 13 8 9 10 12 13 14 14 15 15 15
15 19 23 25 26 26 25 25 25 25 24 24 23 23 22 22 21 20 20 20 19 19 19 19 18 18 17 17 16 15 15 14 10 8 10 10 11 13 13 14 14 15 15
15 19 23 26 26 26 26 25 26 25 24 24 24 23 22 22 21 20 20 20 20 19 19 19 18 17 17 16 16 15 14 11 9 10 10 10 11 12 13 13 14 14 14
15 17 23 26 26 26 26 26 26 25 24 24 24 23 22 21 21 21 20 20 20 19 19 19 18 17 16 16 15 14 12 8 8 9 9 10 11 12 13 13 13 13 13
15 17 21 25 26 26 26 26 26 26 25 24 24 23 22 22 22 21 21 20 20 19 19 18 17 17 16 15 15 13 11 6 9 9 9 10 10 11 12 12 12 12 13
13 16 18 24 26 25 25 26 26 26 25 24 24 23 22 22 21 21 21 20 19 19 18 18 17 16 15 14 14 13 10 5 7 8 8 9 10 10 11 12 11 12 13
13 16 18 21 24 25 25 25 26 25 25 24 23 23 22 22 21 21 20 19 19 18 18 17 16 16 15 14 13 12 9 6 8 7 7 8 9 10 10 11 11 11 12
13 15 17 19 20 22 23 25 25 25 24 24 22 23 22 19 19 19 18 19 19 18 17 17 16 16 14 13 12 11 8 6 7 6 6 8 8 9 9 10 10 10 10
16 18 17 19 19 20 19 21 22 22 23 22 21 22 19 17 16 16 19 18 18 18 17 16 16 15 12 11 11 9 6 7 6 6 6 7 7 8 8 9 8 8 8
18 18 18 19 18 18 15 16 14 15 18 19 21 21 17 16 15 15 15 16 16 17 15 15 14 10 9 8 8 7 7 6 5 5 6 6 5 6 7 7 7 7 7
17 19 19 19 18 17 16 15 14 13 13 13 18 20 16 11 12 12 11 13 13 12 12 11 9 10 9 9 8 8 8 6 5 5 6 5 4 5 6 6 6 5 5
18 19 19 19 19 17 15 14 14 14 14 15 16 19 17 12 12 12 11 11 12 12 11 10 9 9 9 8 7 8 7 6 6 5 5 6 4 4 4 5 4 4 4
19 19 19 20 19 18 16 15 14 15 15 15 15 18 19 15 13 12 11 10 11 12 11 10 10 9 7 7 7 7 7 6 6 5 5 5 4 2 2 2 3 2 2
20 19 20 20 19 19 18 17 14 14 15 14 14 18 19 17 15 13 11 11 11 12 12 10 10 8 6 7 7 7 6 6 6 5 4 4 3 3 1 1 1 2 2
19 20 20 18 19 19 17 16 13 15 15 14 15 16 19 19 18 14 11 11 12 12 11 9 9 8 7 7 7 6 6 5 6 6 5 4 4 3 3 1 1 2 3
19 20 20 20 21 19 17 15 14 15 15 14 15 15 17 19 19 15 12 11 14 11 10 9 9 8 8 7 6 5 5 5 5 6 6 5 5 4 4 3 2 3 4
18 19 20 20 21 19 15 13 11 13 13 13 14 15 18 18 19 15 12 13 14 11 10 10 10 9 7 7 6 5 5 5 5 6 6 6 6 6 6 5 5 5 5
17 18 19 20 20 17 14 14 14 13 14 13 13 17 19 19 19 16 12 14 13 12 12 12 10 11 8 7 6 5 5 6 6 6 6 6 7 7 7 7 7 7 6
15 17 19 20 20 19 16 15 14 13 12 13 13 15 19 19 19 16 15 14 14 12 13 13 11 9 8 8 6 5 4 5 6 6 6 6 7 7 7 8 9 8 8
13 15 16 19 20 20 18 14 13 11 10 11 14 14 17 19 19 18 17 15 15 13 13 14 14 13 10 9 8 5 4 4 3 5 6 6 7 6 7 8 9 10 10
12 12 15 17 19 19 19 17 18 15 14 13 14 14 17 19 19 19 18 17 16 14 14 14 14 12 12 10 8 7 5 2 3 3 5 6 6 7 7 6 8 10 10
10 10 12 15 17 19 19 20 20 18 15 12 14 17 17 17 18 19 18 17 16 14 15 15 15 14 12 11 9 7 6 5 5 4 4 4 5 6 6 7 7 8 9
7 8 10 14 16 18 20 21 21 21 18 17 17 17 16 14 15 19 18 17 16 14 15 15 15 16 13 13 10 9 7 6 6 6 6 5 5 4 5 6 6 7 8
Wind_Direction
174 170 171 170 166 164 162 161 158 156 154 153 151 148 144 140 137 134 132 130 129 126 124 122 118 115 111 108 105 101 98 95 91 88 88 87 85 84 81 78 80 78 74
168 170 169 170 167 165 164 162 158 156 154 153 151 148 145 141 138 135 133 131 129 127 126 122 119 116 113 109 106 103 100 96 92 90 92 91 86 85 82 76 72 78 75
167 169 170 171 169 167 164 162 158 156 155 153 151 149 146 143 140 138 136 133 130 129 126 123 119 116 113 111 108 105 102 99 96 96 100 94 89 86 84 81 79 78 77
171 170 173 170 170 168 165 162 159 157 155 153 151 149 147 145 142 140 137 135 132 129 127 123 120 118 116 114 111 107 104 102 99 105 95 92 92 89 86 82 80 80 78
175 175 173 170 170 168 165 162 160 157 155 154 152 150 148 146 144 141 138 135 132 129 127 125 123 121 119 117 113 109 106 103 103 100 93 92 92 91 87 83 83 83 80
178 178 173 171 172 169 165 162 160 158 157 156 153 151 149 147 145 142 139 136 133 131 130 128 125 123 122 119 116 114 111 112 119 99 95 92 94 93 91 88 85 83 81
181 180 175 173 172 169 165 163 161 159 158 156 155 152 149 147 144 141 138 137 136 135 133 131 129 127 125 122 119 118 114 114 108 103 95 91 90 94 94 89 84 83 80
185 182 177 174 172 170 167 164 162 160 159 157 155 152 150 147 143 141 140 139 139 138 135 133 132 129 127 125 123 120 118 123 113 105 98 93 92 95 93 88 85 82 82
190 184 180 178 175 170 167 165 163 160 159 157 155 153 150 148 146 145 144 141 141 140 138 136 134 131 129 128 125 121 116 113 117 105 101 95 93 95 94 91 87 87 84
194 190 184 181 179 175 172 166 163 161 159 158 155 152 148 148 148 146 147 144 144 142 141 139 137 134 130 128 127 124 126 141 115 112 105 97 98 100 99 95 90 88 86
198 195 190 185 182 178 175 169 166 162 159 156 155 149 150 155 153 152 148 146 147 144 143 142 139 133 130 128 128 132 148 135 122 113 105 97 105 106 105 100 94 92 89
203 198 193 190 184 179 175 172 172 169 165 166 164 162 163 160 156 153 144 147 146 144 143 141 137 136 142 138 137 156 148 137 130 120 106 98 109 110 111 105 102 100 95
207 202 197 194 188 181 176 173 173 170 170 171 168 166 163 157 152 152 152 149 150 150 148 142 147 154 151 142 151 157 147 141 133 120 112 102 107 117 118 114 110 107 101
215 208 201 196 191 185 179 176 173 171 171 169 169 167 163 158 159 159 159 159 159 159 154 158 158 154 150 151 155 153 154 150 139 127 116 106 100 118 122 122 118 115 109
221 212 206 197 193 187 179 178 176 173 171 169 168 169 166 162 164 162 162 162 163 161 162 161 160 157 157 156 158 161 161 158 150 140 127 103 90 104 124 131 129 122 114
223 216 209 201 194 189 183 179 177 173 170 169 170 172 169 166 166 165 164 165 165 166 167 167 164 161 161 164 164 167 167 166 165 159 148 136 111 96 126 142 150 145 133
225 218 211 204 196 191 185 181 178 173 170 170 171 173 173 171 169 168 167 168 169 168 167 168 163 165 164 167 173 175 175 180 182 179 177 179 166 132 127 176 193 194 195
229 219 213 205 199 194 188 182 178 175 170 170 171 174 176 174 172 170 170 171 170 169 170 170 169 171 173 179 179 178 183 185 199 199 199 201 204 202 176 152 229 236 235
231 221 214 206 200 195 190 185 179 176 171 170 171 174 177 175 174 174 174 172 171 172 175 174 177 179 179 182 183 185 193 199 204 210 214 212 215 220 223 188 212 249 257
232 222 214 207 203 194 188 184 177 176 174 172 174 177 176 177 178 177 175 174 173 175 178 179 178 180 182 179 180 192 206 212 217 220 222 221 221 224 231 233 235 228 236
229 221 214 207 201 193 188 183 179 181 176 175 177 178 178 179 180 180 177 176 178 181 182 182 178 178 181 179 182 196 211 219 225 222 225 227 223 224 231 236 241 245 238
227 220 215 206 200 195 192 187 182 177 179 177 176 180 182 182 182 182 181 180 182 183 184 185 182 182 181 186 193 192 205 204 213 219 220 225 229 225 230 235 240 243 248
228 220 216 208 200 196 192 187 178 170 171 180 181 182 186 186 184 184 185 184 184 186 187 188 187 188 186 191 202 203 207 209 186 195 212 220 225 228 233 234 238 241 244
230 225 221 211 202 195 191 190 183 183 184 189 186 184 186 189 188 187 188 188 187 190 190 191 193 195 192 191 198 219 234 233 216 194 195 213 224 233 237 235 239 240 239
233 227 223 211 204 196 192 194 191 192 191 185 186 185 187 190 191 190 190 190 191 193 193 192 194 197 199 200 197 196 210 221 236 239 229 217 223 228 235 241 241 242 239
236 232 227 210 206 199 196 196 197 194 191 185 188 186 187 189 191 193 191 192 194 195 196 195 196 200 202 205 204 203 203 206 213 221 237 244 249 241 237 241 240 239 238
Height
1475 1477 1480 1483 1487 1491 1494 1497 1501 1504 1506 1509 1511 1514 1516 1518 1519 1521 1523 1524 1526 1527 1528 1529 1530 1530 1531 1531 1532 1532 1532 1533 1533 1533 1533 1533 1533 1533 1533 1533 1533 1533 1532
1474 1476 1479 1482 1486 1490 1493 1497 1500 1503 1506 1509 1511 1514 1516 1518 1520 1521 1523 1525 1526 1528 1529 1530 1530 1531 1531 1532 1532 1533 1533 1533 1534 1534 1534 1534 1534 1534 1534 1534 1533 1533 1533
1473 1476 1478 1481 1485 1489 1493 1496 1500 1503 1506 1509 1511 1514 1516 1518 1520 1522 1523 1525 1527 1528 1529 1530 1531 1531 1532 1532 1533 1533 1534 1534 1535 1535 1535 1536 1536 1535 1535 1535 1534 1534 1534
1473 1475 1477 1481 1485 1488 1492 1496 1499 1502 1505 1508 1511 1514 1516 1518 1520 1522 1524 1525 1527 1528 1529 1530 1531 1532 1532 1533 1533 1534 1534 1535 1536 1536 1537 1537 1537 1537 1536 1536 1536 1535 1535
1473 1475 1477 1480 1484 1488 1491 1495 1499 1502 1505 1508 1511 1513 1516 1518 1520 1522 1524 1525 1527 1528 1529 1530 1531 1532 1533 1533 1534 1535 1535 1536 1537 1538 1538 1538 1538 1538 1538 1537 1537 1537 1536
1472 1474 1477 1480 1483 1487 1491 1494 1498 1501 1504 1507 1510 1513 1516 1518 1520 1522 1524 1525 1527 1528 1530 1531 1532 1533 1533 1534 1535 1536 1536 1537 1538 1539 1539 1540 1539 1539 1539 1538 1538 1538 1538
1471 1473 1475 1479 1483 1486 1490 1493 1497 1501 1504 1507 1510 1513 1515 1518 1520 1521 1523 1525 1527 1528 1529 1531 1532 1533 1534 1535 1536 1536 1537 1538 1540 1540 1540 1540 1540 1540 1540 1540 1539 1539 1539
1469 1471 1474 1477 1481 1486 1489 1493 1496 1500 1503 1506 1509 1512 1515 1517 1519 1521 1523 1525 1526 1528 1529 1531 1532 1533 1534 1535 1536 1537 1538 1539 1540 1541 1541 1541 1541 1541 1541 1540 1540 1540 1540
1467 1470 1472 1476 1480 1484 1488 1492 1495 1499 1502 1505 1509 1511 1514 1516 1518 1520 1522 1524 1526 1528 1529 1531 1532 1533 1535 1536 1537 1538 1539 1540 1542 1542 1542 1542 1542 1542 1542 1541 1541 1541 1540
1465 1468 1470 1474 1478 1482 1486 1490 1494 1498 1501 1505 1508 1511 1513 1516 1518 1520 1522 1524 1526 1527 1529 1531 1532 1534 1535 1536 1537 1538 1539 1541 1542 1543 1543 1543 1543 1543 1542 1542 1542 1542 1541
1463 1465 1468 1471 1475 1479 1483 1488 1492 1496 1500 1503 1507 1509 1512 1515 1517 1519 1521 1523 1525 1527 1529 1531 1532 1534 1535 1536 1537 1539 1540 1542 1543 1543 1543 1543 1543 1543 1543 1543 1543 1542 1542
1459 1462 1465 1468 1471 1475 1480 1484 1489 1493 1497 1501 1504 1507 1511 1514 1516 1518 1520 1523 1525 1527 1529 1530 1532 1533 1535 1536 1537 1539 1541 1542 1543 1544 1544 1544 1544 1544 1544 1543 1543 1543 1542
1456 1458 1461 1464 1468 1471 1475 1480 1485 1489 1494 1498 1502 1505 1509 1512 1514 1517 1519 1522 1524 1526 1528 1530 1532 1534 1535 1536 1537 1539 1541 1542 1543 1544 1544 1544 1544 1544 1544 1544 1544 1543 1543
1452 1454 1457 1460 1463 1467 1471 1476 1480 1485 1490 1494 1498 1502 1506 1509 1512 1515 1517 1520 1522 1525 1527 1529 1531 1533 1534 1536 1538 1539 1540 1542 1543 1543 1544 1544 1544 1545 1544 1544 1544 1544 1543
1448 1450 1453 1455 1459 1463 1467 1472 1476 1481 1486 1490 1495 1499 1502 1506 1509 1512 1515 1518 1521 1523 1525 1528 1530 1532 1534 1535 1537 1539 1540 1541 1542 1543 1543 1544 1544 1544 1544 1544 1544 1544 1543
1442 1445 1448 1451 1454 1458 1462 1467 1472 1476 1482 1487 1491 1496 1500 1503 1507 1510 1513 1516 1518 1521 1524 1527 1529 1531 1533 1535 1536 1538 1539 1541 1542 1543 1543 1543 1544 1544 1544 1544 1544 1543 1543
1437 1440 1443 1446 1450 1454 1458 1463 1467 1472 1477 1482 1488 1492 1497 1500 1504 1507 1511 1513 1516 1519 1522 1525 1528 1530 1532 1534 1535 1537 1538 1540 1541 1542 1542 1543 1543 1543 1543 1543 1543 1543 1542
1431 1434 1437 1441 1445 1449 1453 1458 1462 1467 1472 1478 1484 1489 1493 1497 1501 1505 1508 1511 1514 1517 1520 1523 1525 1528 1530 1532 1534 1536 1537 1538 1540 1541 1541 1541 1542 1542 1542 1542 1542 1541 1541
1425 1428 1431 1435 1439 1444 1449 1454 1458 1462 1467 1473 1479 1485 1489 1494 1498 1502 1505 1508 1511 1514 1517 1520 1524 1526 1529 1531 1533 1534 1536 1537 1538 1538 1540 1540 1540 1540 1540 1540 1540 1540 1539
1419 1422 1426 1429 1434 1439 1444 1449 1453 1457 1462 1469 1474 1480 1485 1490 1494 1498 1502 1505 1508 1512 1515 1518 1521 1524 1527 1529 1531 1533 1534 1535 1536 1536 1537 1537 1538 1538 1538 1538 1538 1538 1537
1413 1416 1420 1423 1428 1433 1437 1442 1447 1452 1457 1464 1470 1475 1481 1486 1490 1494 1498 1502 1505 1508 1512 1515 1519 1521 1524 1527 1530 1532 1533 1533 1534 1534 1534 1535 1535 1535 1535 1536 1536 1535 1535
1406 1410 1414 1417 1422 1426 1431 1437 1442 1448 1453 1459 1465 1471 1476 1481 1486 1490 1494 1498 1501 1505 1509 1512 1515 1518 1521 1524 1527 1530 1532 1533 1531 1531 1532 1532 1533 1533 1533 1533 1533 1532 1532
1401 1403 1407 1411 1416 1420 1426 1432 1438 1444 1449 1454 1459 1465 1471 1476 1481 1485 1490 1494 1498 1501 1505 1508 1512 1515 1518 1521 1524 1527 1529 1530 1530 1530 1529 1530 1530 1530 1530 1530 1530 1530 1529
1395 1398 1402 1406 1410 1415 1420 1426 1429 1434 1440 1446 1453 1460 1466 1471 1476 1481 1485 1490 1494 1497 1501 1504 1508 1511 1515 1517 1520 1523 1525 1526 1528 1528 1528 1528 1528 1528 1528 1527 1527 1526 1526
1391 1393 1397 1401 1405 1409 1414 1419 1424 1430 1436 1442 1448 1454 1460 1465 1471 1476 1480 1485 1489 1493 1497 1500 1504 1507 1511 1514 1516 1519 1521 1522 1524 1526 1526 1526 1526 1525 1525 1524 1524 1523 1522
1386 1389 1392 1395 1399 1404 1409 1414 1419 1424 1430 1436 1442 1447 1454 1459 1465 1470 1475 1480 1484 1488 1492 1496 1500 1503 1506 1510 1512 1515 1517 1519 1520 1522 1523 1523 1523 1523 1522 1521 1520 1520 1519